Location: Grandview
(34.8900°N, 117.1058°W)
Time: 03:00:02
(UTC-07:00)

Hubble Space Telescope - Pass Details

Date: 08 October 2017
Orbit: 537 x 541 km, 28.5° (Epoch: 22 October)

Event Time Altitude Azimuth Distance (km) Brightness Sun altitude
Exits shadow 05:37:55 21° 227° (SW) 1,246 2.2 -15.4°
Maximum altitude 05:39:31 27° 191° (S) 1,058 2.1 -15.0°
Drops below altitude 10° 05:43:01 10° 133° (SE) 1,786 4.1 -14.3°
Sets 05:45:31 0° 121° (ESE) 2,676 5.4 -13.8°
